Location: Paddlesworth
(51.1000°N, 1.1333°E)
Time: 22:52:55
(UTC+00:00)

Cosmos 2084 - Pass Details

Date: 11 May 2021
Orbit: 541 x 640 km, 62.8° (Epoch: 23 June)

Event Time Altitude Azimuth Distance (km) Brightness Sun altitude
Rises 21:39:53 0° 236° (SW) 2,721 6.9 -15.0°
Reaches altitude 10° 21:42:06 10° 240° (WSW) 1,842 6.0 -15.2°
Maximum altitude 21:46:11 59° 321° (NW) 663 4.0 -15.5°
Drops below altitude 10° 21:50:26 10° 41° (NE) 1,907 6.3 -15.8°
Sets 21:52:45 0° 45° (NE) 2,828 7.1 -16.0°
